Hourly Weather Porto Velho

Today, 2 July, Thursday

Time Temperature Precipitation Wind Pressure Humidity
00:00 +23°C° 0 mm 0 mps 751 mmHg 77%
01:00 +23°C° 0 mm 0 mps 750 mmHg 78%
02:00 +22°C° 0 mm 0 mps 750 mmHg 80%
03:00 +22°C° 0 mm 0 mps 750 mmHg 81%
04:00 +22°C° 0 mm 0 mps 750 mmHg 82%
05:00 +22°C° 0 mm 0 mps 750 mmHg 84%
06:00 +22°C° 0 mm 0 mps 751 mmHg 81%
07:00 +23°C° 0 mm 0 mps 751 mmHg 79%
08:00 +24°C° 0 mm 0 mps 752 mmHg 80%
09:00 +25°C° 0 mm 0 mps 751 mmHg 75%
10:00 +27°C° 0 mm 0 mps 751 mmHg 70%
11:00 +28°C° 0 mm 0 mps 751 mmHg 65%
12:00 +32°C° 0 mm 1 mps 750 mmHg 59%
13:00 +33°C° 0 mm 1 mps 750 mmHg 53%
14:00 +35°C° 0 mm 1 mps 749 mmHg 46%
15:00 +34°C° 0 mm 1 mps 749 mmHg 50%
16:00 +33°C° 0 mm 1 mps 748 mmHg 54%
17:00 +32°C° 0 mm 1 mps 748 mmHg 57%
18:00 +31°C° 0 mm 1 mps 748 mmHg 61%
19:00 +27°C° 0 mm 0 mps 749 mmHg 65%
20:00 +26°C° 0 mm 0 mps 749 mmHg 69%
21:00 +25°C° 0 mm 0 mps 749 mmHg 71%
22:00 +25°C° 0 mm 0 mps 750 mmHg 73%
23:00 +24°C° 0 mm 0 mps 750 mmHg 75%

Tomorrow, 3 July, Friday

Time Temperature Precipitation Wind Pressure Humidity
00:00 +24°C° 0 mm 0 mps 750 mmHg 77%
01:00 +23°C° 0 mm 0 mps 750 mmHg 80%
02:00 +23°C° 0 mm 0 mps 750 mmHg 82%
03:00 +23°C° 0 mm 0 mps 750 mmHg 84%
04:00 +22°C° 0 mm 0 mps 750 mmHg 87%
05:00 +22°C° 0 mm 0 mps 750 mmHg 89%
06:00 +22°C° 0.2 mm 0 mps 750 mmHg 91%
07:00 +25°C° 0.2 mm 1 mps 751 mmHg 92%
08:00 +25°C° 0.2 mm 1 mps 751 mmHg 94%
09:00 +28°C° 0 mm 1 mps 751 mmHg 79%
10:00 +31°C° 0 mm 1 mps 751 mmHg 65%
11:00 +34°C° 0 mm 1 mps 752 mmHg 51%
12:00 +34°C° 0 mm 1 mps 751 mmHg 48%
13:00 +35°C° 0 mm 1 mps 750 mmHg 46%
14:00 +36°C° 0 mm 2 mps 749 mmHg 43%
15:00 +35°C° 0 mm 1 mps 749 mmHg 46%
16:00 +34°C° 0 mm 1 mps 748 mmHg 49%
17:00 +33°C° 0 mm 1 mps 748 mmHg 52%
18:00 +32°C° 0 mm 1 mps 748 mmHg 57%
19:00 +30°C° 0 mm 1 mps 749 mmHg 62%
20:00 +28°C° 0 mm 1 mps 749 mmHg 68%
21:00 +27°C° 0 mm 1 mps 749 mmHg 70%
22:00 +25°C° 0 mm 0 mps 750 mmHg 72%
23:00 +24°C° 0 mm 0 mps 750 mmHg 74%

Day after tomorrow, 4 July, Saturday

Time Temperature Precipitation Wind Pressure Humidity
00:00 +24°C° 0 mm 0 mps 750 mmHg 77%
01:00 +23°C° 0 mm 0 mps 749 mmHg 79%
02:00 +23°C° 0 mm 0 mps 749 mmHg 82%
03:00 +23°C° 0 mm 0 mps 749 mmHg 84%
04:00 +22°C° 0 mm 0 mps 749 mmHg 85%
05:00 +22°C° 0 mm 0 mps 749 mmHg 86%
06:00 +23°C° 0 mm 0 mps 750 mmHg 83%
07:00 +24°C° 0 mm 0 mps 751 mmHg 80%
08:00 +25°C° 0 mm 0 mps 751 mmHg 78%
09:00 +27°C° 0 mm 0 mps 751 mmHg 68%
10:00 +30°C° 0 mm 0 mps 751 mmHg 59%
11:00 +33°C° 0 mm 0 mps 751 mmHg 50%
12:00 +33°C° 0 mm 0 mps 750 mmHg 48%
13:00 +33°C° 0 mm 0 mps 750 mmHg 46%
14:00 +35°C° 0 mm 1 mps 749 mmHg 44%
15:00 +34°C° 0 mm 1 mps 748 mmHg 49%
16:00 +32°C° 0 mm 0 mps 748 mmHg 54%
17:00 +31°C° 0 mm 0 mps 748 mmHg 59%
18:00 +29°C° 0 mm 0 mps 748 mmHg 63%
19:00 +27°C° 0 mm 0 mps 748 mmHg 68%
20:00 +26°C° 0 mm 0 mps 749 mmHg 73%
21:00 +25°C° 0 mm 0 mps 749 mmHg 76%
22:00 +25°C° 0 mm 0 mps 749 mmHg 80%
23:00 +24°C° 0 mm 0 mps 750 mmHg 83%

5 July, Sunday

Time Temperature Precipitation Wind Pressure Humidity
00:00 +24°C° 0 mm 0 mps 750 mmHg 84%
01:00 +24°C° 0 mm 0 mps 749 mmHg 86%
02:00 +23°C° 0 mm 0 mps 749 mmHg 87%
03:00 +23°C° 0 mm 0 mps 749 mmHg 87%
04:00 +23°C° 0 mm 0 mps 749 mmHg 88%
05:00 +23°C° 0 mm 0 mps 749 mmHg 88%
06:00 +24°C° 0 mm 0 mps 750 mmHg 85%
07:00 +25°C° 0 mm 0 mps 750 mmHg 81%
08:00 +26°C° 0 mm 0 mps 751 mmHg 77%
09:00 +28°C° 0 mm 0 mps 751 mmHg 68%
10:00 +31°C° 0 mm 0 mps 751 mmHg 58%
11:00 +34°C° 0 mm 0 mps 751 mmHg 48%
12:00 +33°C° 0 mm 0 mps 751 mmHg 47%
13:00 +35°C° 0 mm 1 mps 750 mmHg 47%
14:00 +35°C° 0 mm 1 mps 749 mmHg 46%
15:00 +34°C° 0 mm 1 mps 749 mmHg 50%
16:00 +31°C° 0 mm 0 mps 748 mmHg 54%
17:00 +31°C° 0 mm 0 mps 748 mmHg 57%
18:00 +30°C° 0 mm 0 mps 748 mmHg 59%
19:00 +29°C° 0 mm 0 mps 749 mmHg 61%
20:00 +28°C° 0 mm 0 mps 749 mmHg 63%
21:00 +27°C° 0 mm 0 mps 749 mmHg 67%
22:00 +26°C° 0 mm 0 mps 750 mmHg 70%
23:00 +25°C° 0 mm 0 mps 750 mmHg 73%

6 July, Monday

Time Temperature Precipitation Wind Pressure Humidity
00:00 +25°C° 0 mm 0 mps 750 mmHg 74%
01:00 +25°C° 0 mm 0 mps 750 mmHg 74%
02:00 +25°C° 0 mm 0 mps 750 mmHg 75%
03:00 +24°C° 0 mm 0 mps 750 mmHg 77%
04:00 +23°C° 0 mm 0 mps 750 mmHg 80%
05:00 +23°C° 0 mm 0 mps 750 mmHg 82%
06:00 +24°C° 0 mm 0 mps 750 mmHg 80%
07:00 +25°C° 0 mm 0 mps 751 mmHg 77%
08:00 +26°C° 0 mm 0 mps 751 mmHg 74%
09:00 +29°C° 0 mm 0 mps 751 mmHg 63%
10:00 +32°C° 0 mm 0 mps 751 mmHg 53%
11:00 +35°C° 0 mm 0 mps 751 mmHg 42%
12:00 +37°C° 0 mm 1 mps 750 mmHg 40%
13:00 +37°C° 0 mm 1 mps 749 mmHg 37%
14:00 +37°C° 0 mm 1 mps 748 mmHg 35%
15:00 +37°C° 0 mm 1 mps 748 mmHg 38%
16:00 +36°C° 0 mm 1 mps 748 mmHg 41%
17:00 +33°C° 0 mm 0 mps 747 mmHg 44%
18:00 +31°C° 0 mm 0 mps 748 mmHg 49%
19:00 +29°C° 0 mm 0 mps 748 mmHg 54%
20:00 +27°C° 0 mm 0 mps 749 mmHg 59%
21:00 +26°C° 0 mm 0 mps 749 mmHg 60%
22:00 +26°C° 0 mm 0 mps 750 mmHg 61%
23:00 +26°C° 0 mm 0 mps 750 mmHg 62%

7 July, Tuesday

Time Temperature Precipitation Wind Pressure Humidity
00:00 +25°C° 0 mm 0 mps 750 mmHg 64%
01:00 +25°C° 0 mm 0 mps 750 mmHg 67%
02:00 +24°C° 0 mm 0 mps 749 mmHg 70%
03:00 +24°C° 0 mm 0 mps 749 mmHg 71%
04:00 +23°C° 0 mm 0 mps 749 mmHg 73%
05:00 +23°C° 0 mm 0 mps 749 mmHg 75%
06:00 +24°C° 0 mm 0 mps 750 mmHg 73%
07:00 +24°C° 0 mm 0 mps 750 mmHg 72%
08:00 +25°C° 0 mm 0 mps 751 mmHg 71%
09:00 +28°C° 0 mm 0 mps 751 mmHg 62%
10:00 +32°C° 0 mm 1 mps 751 mmHg 54%
11:00 +34°C° 0 mm 1 mps 751 mmHg 46%
12:00 +35°C° 0 mm 1 mps 750 mmHg 42%
13:00 +36°C° 0 mm 1 mps 749 mmHg 39%
14:00 +37°C° 0 mm 1 mps 748 mmHg 36%
15:00 +36°C° 0 mm 1 mps 748 mmHg 42%
16:00 +32°C° 0 mm 0 mps 748 mmHg 49%
17:00 +30°C° 0 mm 0 mps 748 mmHg 56%
18:00 +29°C° 0 mm 0 mps 748 mmHg 58%
19:00 +28°C° 0 mm 0 mps 749 mmHg 60%
20:00 +29°C° 0 mm 1 mps 749 mmHg 62%
21:00 +29°C° 0 mm 1 mps 750 mmHg 66%
22:00 +28°C° 0 mm 1 mps 750 mmHg 69%
23:00 +27°C° 0 mm 1 mps 750 mmHg 72%
Show more